[[{"header":{"parameterUnit":"m.s-1","parameterCategory":1,"la1":30.2991,"la2":30.254,"lo1":-89.0895,"lo2":-89.0444,"dy":0.0017,"dx":0.0017,"nx":28,"ny":28,"refTime":"2025-08-05T21:00:00:Z","depth":0,"parameterNumber":2,"parameterNumberName":"U-component_of_WINDS"},"data":[0,0,0,0,0,0,0,0,0,0,0,0,0,0,0,0,0,0,0,0,0,0,0,0,0,0,0,0,0,0,0,0,0,0,0,0,0,0,0,0,0,0,0,0,0,0,0,0,0,0,0,0,0,0,0,0,0,0,-1.7992,-1.7992,0,-1.7992,-1.7992,-1.7992,-1.7968,-1.7968,-1.7967,-1.7966,-1.7966,-1.7966,-1.7967,0,0,0,0,0,0,0,0,0,0,0,0,0,-1.7969,-1.797,-1.7992,-1.7992,-1.7992,-1.7992,-1.7992,-1.7992,-1.7968,-1.7968,-1.7967,-1.7966,-1.7966,-1.7966,-1.7967,0,0,0,0,0,0,0,0,0,0,0,0,0,-1.7975,-1.797,-1.7992,-1.798,-1.7979,-1.7992,-1.7992,-1.7992,-1.7969,-1.7968,-1.7967,-1.7966,-1.7965,-1.7966,-1.7967,-1.7991,0,0,-1.797,-1.797,0,0,0,0,0,0,0,0,-1.7975,-1.7976,-1.7982,-1.7981,-1.798,-1.7979,-1.7984,-1.7992,-1.7969,-1.7973,-1.7966,-1.7965,-1.7971,-1.7971,-1.7973,-1.7991,-1.7991,-1.797,-1.797,-1.7971,-1.7971,0,0,0,0,0,0,0,-1.7975,-1.7976,-1.7992,-1.7982,-1.7981,-1.7974,-1.7974,-1.7985,-1.7977,-1.7972,-1.797,-1.7971,-1.797,-1.7973,-1.7973,-1.7991,-1.797,-1.797,-1.7971,-1.7971,-1.8026,-1.8027,0,0,0,0,0,0,-1.7976,-1.7976,-1.7992,-1.7992,-1.7975,-1.7975,-1.7975,-1.798,-1.7977,-1.7975,-1.7972,-1.797,-1.7972,-1.7972,-1.7973,-1.7999,-1.7971,-1.7971,-1.7972,-1.8025,-1.8026,-1.8028,0,0,0,0,0,0,-1.7976,-1.7978,-1.7992,-1.7983,-1.7985,-1.7977,-1.7983,-1.7981,-1.7983,-1.7976,-1.7975,-1.7976,-1.7971,-1.7972,-1.7986,-1.7999,-1.7972,-1.7973,-1.8024,-1.8026,-1.8027,-1.8053,0,0,0,0,0,0,-1.7975,-1.7978,-1.7987,-1.7984,-1.7985,-1.8006,-1.7984,-1.7982,-1.7985,-1.7982,-1.798,-1.7978,-1.797,-1.7985,-1.7987,-1.7999,-1.7973,-1.8023,-1.8025,-1.8027,-1.8051,-1.8055,-1.8058,0,0,0,0,0,-1.7974,-1.7995,-1.7988,-1.799,-1.7997,-1.8007,-1.8007,-1.7998,-1.7986,-1.7995,-1.799,-1.7978,-1.7998,-1.7987,-1.7989,-1.8002,-1.8022,-1.8024,-1.8026,-1.8049,-1.8054,-1.8058,0,0,0,0,0,0,-1.8,-1.7994,-1.7986,-1.8006,-1.8007,-1.8003,-1.8013,-1.8004,-1.8008,-1.8005,-1.7993,-1.7993,-1.8008,-1.8007,-1.7995,-1.8024,-1.8008,-1.801,-1.8024,-1.8029,-1.8033,-1.8032,-1.7974,0,0,0,0,0,-1.8008,-1.8016,-1.8011,-1.8029,-1.803,-1.8022,-1.8025,-1.8018,-1.8018,-1.8018,-1.8015,-1.8015,-1.8021,-1.8025,-1.803,-1.8051,-1.8049,-1.806,-1.8064,-1.8068,-1.8069,-1.8078,-1.8083,-1.8035,-1.8035,-1.8034,0,0,-1.8024,-1.8022,-1.8028,-1.8034,-1.8033,-1.8042,-1.8022,-1.8032,-1.8038,-1.802,-1.8032,-1.803,-1.803,-1.8047,-1.8054,-1.8046,-1.8082,-1.807,-1.8073,-1.8073,-1.8081,-1.8085,-1.8089,-1.8036,-1.8036,-1.8035,0,0,-1.8057,-1.8058,-1.8071,-1.8072,-1.8071,-1.8066,-1.8069,-1.8066,-1.8064,-1.8077,-1.8063,-1.8069,-1.808,-1.808,-1.8081,-1.8114,-1.8102,-1.8116,-1.8135,-1.8144,-1.8148,-1.8151,-1.816,-1.8164,-1.8118,-1.8118,-1.8118,0,-1.8077,-1.809,-1.808,-1.809,-1.8092,-1.8077,-1.809,-1.8091,-1.8092,-1.8094,-1.8085,-1.8097,-1.8096,-1.8111,-1.8119,-1.8122,-1.8124,-1.8115,-1.8148,-1.8151,-1.8154,-1.8163,-1.8167,-1.812,-1.812,-1.8119,-1.8119,0,-1.8113,-1.8122,-1.8133,-1.8134,-1.8138,-1.815,-1.8141,-1.8146,-1.8139,-1.8134,-1.8146,-1.8144,-1.8148,-1.8152,-1.8145,-1.8166,-1.8161,-1.815,-1.8133,-1.816,-1.8168,-1.8172,-1.8122,-1.8121,-1.8121,-1.812,0,0,-1.8161,-1.8157,-1.8161,-1.8161,-1.8159,-1.8165,-1.8176,-1.818,-1.8183,-1.8185,-1.8193,-1.8202,-1.8192,-1.8193,-1.8186,-1.8194,-1.8217,-1.8182,-1.8182,-1.8187,-1.8239,-1.8245,-1.8249,-1.8211,-1.8211,-1.8212,-1.8238,0,-1.8192,-1.821,-1.8201,-1.822,-1.8227,-1.8212,-1.8221,-1.8221,-1.8217,-1.8222,-1.8217,-1.8223,-1.821,-1.8211,-1.8218,-1.8213,-1.8227,-1.8211,-1.8216,-1.8216,-1.8214,-1.8254,-1.8261,-1.8286,-1.8241,-1.8242,-1.8242,0,-1.823,-1.8232,-1.8252,-1.8247,-1.825,-1.8258,-1.826,-1.8266,-1.8264,-1.8261,-1.8262,-1.8253,-1.8262,-1.8247,-1.8259,-1.8248,-1.825,-1.8248,-1.8248,-1.8247,-1.823,-1.8251,-1.8294,-1.8297,-1.8248,-1.8247,-1.8247,0,-1.826,-1.8269,-1.8281,-1.8282,-1.8278,-1.8283,-1.8282,-1.828,-1.8282,-1.8284,-1.8285,-1.8288,-1.8289,-1.8292,-1.8283,-1.8273,-1.8295,-1.828,-1.8291,-1.8291,-1.8295,-1.8294,-1.8336,-1.83,-1.83,-1.8299,-1.8299,0,-1.8294,-1.8306,-1.8294,-1.8302,-1.8314,-1.8304,-1.8316,-1.8313,-1.8312,-1.8317,-1.8306,-1.8311,-1.83,-1.8305,-1.8298,-1.8308,-1.8309,-1.8305,-1.8303,-1.8305,-1.8305,-1.8305,-1.8302,-1.83,-1.83,-1.83,-1.83,0,-1.8329,-1.8323,-1.8334,-1.8329,-1.8328,-1.8338,-1.8333,-1.8339,-1.8334,-1.8342,-1.8343,-1.8335,-1.8339,-1.8331,-1.8335,-1.833,-1.8344,-1.834,-1.8344,-1.8342,-1.8353,-1.8351,-1.8394,-1.8398,-1.8361,-1.8361,-1.8361,0,-1.835,-1.8359,-1.8355,-1.8358,-1.8357,-1.8362,-1.8364,-1.8355,-1.8357,-1.8356,-1.8362,-1.8365,-1.8367,-1.8375,-1.8369,-1.8371,-1.8366,-1.8381,-1.8366,-1.8368,-1.8364,-1.8363,-1.8363,-1.8383,-1.8384,-1.8384,-1.8385,0,-1.8387,-1.8383,-1.8387,-1.8389,-1.8392,-1.8393,-1.8393,-1.8396,-1.8386,-1.8389,-1.8394,-1.8395,-1.8398,-1.8401,-1.8402,-1.84,-1.839,-1.839,-1.8392,-1.8393,-1.8394,-1.8392,-1.835,-1.8388,-1.8388,-1.8387,-1.8387,-1.8387,-1.8415,-1.8421,-1.8419,-1.8422,-1.8422,-1.8422,-1.8427,-1.8423,-1.8426,-1.8428,-1.8422,-1.8427,-1.8425,-1.8425,-1.8424,-1.8427,-1.8421,-1.8425,-1.8425,-1.8426,-1.8427,-1.8395,-1.8428,-1.8428,-1.8428,-1.8428,-1.8428,0,-1.8449,-1.8447,-1.8451,-1.8451,-1.8454,-1.8445,-1.8445,-1.8447,-1.8452,-1.8451,-1.8453,-1.8457,-1.846,-1.8455,-1.8456,-1.846,-1.8455,-1.8461,-1.8459,-1.8459,-1.8434,-1.8431,-1.8464,-1.8464,-1.8464,-1.8464,-1.8464,-1.8464,-1.8467,-1.8477,-1.8472,-1.8481,-1.8479,-1.8483,-1.8484,-1.8484,-1.8483,-1.8488,-1.849,-1.8486,-1.8483,-1.8484,-1.8486,-1.8484,-1.8485,-1.8491,-1.8488,-1.8464,-1.8461,-1.8457,-1.8454,-1.8492,-1.8492,-1.8512,-1.8512,-1.8512]},{"header":{"parameterUnit":"m.s-1","parameterCategory":1,"la1":30.2991,"la2":30.254,"lo1":-89.0895,"lo2":-89.0444,"dy":0.0017,"dx":0.0017,"nx":28,"ny":28,"refTime":"2025-08-05T21:00:00:Z","depth":0,"parameterNumber":3,"parameterNumberName":"V-component_of_WINDS"},"data":[0,0,0,0,0,0,0,0,0,0,0,0,0,0,0,0,0,0,0,0,0,0,0,0,0,0,0,0,0,0,0,0,0,0,0,0,0,0,0,0,0,0,0,0,0,0,0,0,0,0,0,0,0,0,0,0,0,0,-1.3708,-1.3708,0,-1.3695,-1.3695,-1.3694,-1.3698,-1.3698,-1.3698,-1.3699,-1.3683,-1.3683,-1.3682,0,0,0,0,0,0,0,0,0,0,0,0,0,-1.3732,-1.3732,-1.3708,-1.3708,-1.3708,-1.3695,-1.3695,-1.3694,-1.3698,-1.3698,-1.3698,-1.3699,-1.3684,-1.3683,-1.3682,0,0,0,0,0,0,0,0,0,0,0,0,0,-1.3721,-1.3732,-1.3708,-1.3708,-1.3708,-1.3695,-1.3695,-1.3694,-1.3698,-1.3698,-1.3698,-1.3699,-1.3684,-1.3683,-1.3682,-1.3668,0,0,-1.3679,-1.3678,0,0,0,0,0,0,0,0,-1.3721,-1.372,-1.3708,-1.3708,-1.3708,-1.3698,-1.3698,-1.3685,-1.3698,-1.3701,-1.3699,-1.3699,-1.3688,-1.3687,-1.3683,-1.3667,-1.3667,-1.3679,-1.3678,-1.3678,-1.3678,0,0,0,0,0,0,0,-1.3722,-1.372,-1.3703,-1.3708,-1.3707,-1.3707,-1.3706,-1.3695,-1.3693,-1.3701,-1.3701,-1.37,-1.3688,-1.3684,-1.3683,-1.3666,-1.3679,-1.3678,-1.3677,-1.3677,-1.3635,-1.3635,0,0,0,0,0,0,-1.3723,-1.3721,-1.3703,-1.3702,-1.3716,-1.3706,-1.3705,-1.3701,-1.3693,-1.3692,-1.3699,-1.37,-1.3686,-1.3684,-1.3682,-1.3664,-1.3678,-1.3677,-1.3676,-1.3636,-1.3635,-1.3634,0,0,0,0,0,0,-1.3724,-1.3722,-1.3704,-1.3712,-1.3709,-1.3706,-1.3701,-1.37,-1.3697,-1.3691,-1.3691,-1.3696,-1.3686,-1.3684,-1.3671,-1.3663,-1.3676,-1.3676,-1.3636,-1.3635,-1.3635,-1.3627,0,0,0,0,0,0,-1.3725,-1.3722,-1.3718,-1.3712,-1.3709,-1.3694,-1.37,-1.37,-1.3695,-1.3696,-1.3688,-1.3688,-1.3686,-1.3672,-1.367,-1.3662,-1.3675,-1.3637,-1.3636,-1.3635,-1.3628,-1.3626,-1.3625,0,0,0,0,0,-1.3726,-1.3716,-1.3718,-1.3715,-1.3704,-1.3693,-1.3692,-1.3691,-1.3695,-1.3689,-1.3686,-1.3688,-1.3664,-1.3671,-1.3668,-1.366,-1.3637,-1.3636,-1.3635,-1.3629,-1.3627,-1.3625,0,0,0,0,0,0,-1.3722,-1.3716,-1.3717,-1.3706,-1.37,-1.3694,-1.3688,-1.3689,-1.3681,-1.3682,-1.368,-1.3678,-1.3665,-1.3661,-1.3669,-1.3645,-1.3651,-1.365,-1.3648,-1.3645,-1.3644,-1.3645,-1.3674,0,0,0,0,0,-1.372,-1.3713,-1.3707,-1.3698,-1.3695,-1.3691,-1.3687,-1.3686,-1.368,-1.3678,-1.3673,-1.3666,-1.3657,-1.3651,-1.3643,-1.3628,-1.3625,-1.362,-1.3619,-1.3617,-1.3615,-1.3604,-1.3602,-1.3631,-1.3631,-1.3631,0,0,-1.3715,-1.3711,-1.3707,-1.3697,-1.3692,-1.3684,-1.369,-1.3681,-1.3674,-1.3676,-1.3664,-1.366,-1.3652,-1.3637,-1.363,-1.3634,-1.3607,-1.3616,-1.3615,-1.3614,-1.3603,-1.36,-1.3598,-1.363,-1.363,-1.363,0,0,-1.3702,-1.3699,-1.369,-1.3685,-1.3678,-1.3675,-1.3673,-1.3666,-1.3664,-1.3651,-1.3652,-1.3643,-1.3628,-1.3621,-1.3616,-1.3598,-1.3599,-1.3595,-1.3586,-1.3575,-1.3573,-1.3571,-1.3562,-1.356,-1.3593,-1.3593,-1.3593,0,-1.3698,-1.3686,-1.3685,-1.3675,-1.367,-1.3672,-1.3661,-1.3656,-1.3646,-1.3642,-1.3646,-1.3625,-1.362,-1.3603,-1.3598,-1.3594,-1.359,-1.3596,-1.3574,-1.3571,-1.3569,-1.3561,-1.3558,-1.3593,-1.3593,-1.3593,-1.3593,0,-1.3679,-1.367,-1.3664,-1.3654,-1.3648,-1.3638,-1.3634,-1.3628,-1.3627,-1.3623,-1.3609,-1.3602,-1.3592,-1.3587,-1.3587,-1.3569,-1.3571,-1.3574,-1.3581,-1.3566,-1.3558,-1.3555,-1.3592,-1.3592,-1.3593,-1.3593,0,0,-1.3665,-1.3653,-1.3651,-1.3645,-1.3637,-1.3629,-1.3618,-1.3608,-1.3601,-1.3594,-1.3583,-1.3569,-1.3571,-1.3565,-1.3563,-1.3554,-1.3537,-1.3558,-1.3558,-1.3553,-1.3514,-1.3511,-1.3508,-1.3538,-1.3537,-1.3537,-1.3514,0,-1.365,-1.3632,-1.363,-1.3613,-1.3603,-1.3603,-1.3593,-1.3586,-1.3581,-1.3572,-1.3567,-1.3556,-1.3561,-1.3557,-1.3547,-1.3542,-1.3529,-1.3543,-1.3526,-1.3526,-1.3527,-1.3504,-1.3502,-1.3481,-1.3512,-1.3511,-1.3511,0,-1.3631,-1.3623,-1.3605,-1.3595,-1.3591,-1.3582,-1.3571,-1.3562,-1.3553,-1.355,-1.3542,-1.3541,-1.3527,-1.3534,-1.3514,-1.3524,-1.3516,-1.3512,-1.3511,-1.3509,-1.3517,-1.35,-1.3475,-1.3471,-1.3506,-1.3507,-1.3507,0,-1.3621,-1.3605,-1.3592,-1.3587,-1.3576,-1.3569,-1.3564,-1.3555,-1.3547,-1.3537,-1.3532,-1.352,-1.3513,-1.3503,-1.3498,-1.3504,-1.3477,-1.3485,-1.3473,-1.3473,-1.3467,-1.3467,-1.3439,-1.3464,-1.3464,-1.3464,-1.3464,0,-1.3605,-1.3593,-1.3586,-1.3578,-1.3564,-1.3561,-1.3547,-1.3542,-1.3533,-1.3522,-1.3521,-1.3511,-1.3505,-1.3493,-1.3489,-1.3471,-1.3468,-1.3464,-1.3463,-1.3464,-1.3464,-1.3459,-1.3459,-1.3463,-1.3464,-1.3464,-1.3464,0,-1.3591,-1.3586,-1.3571,-1.3561,-1.3558,-1.3548,-1.3538,-1.3529,-1.3524,-1.351,-1.3507,-1.3498,-1.3484,-1.3478,-1.346,-1.3457,-1.3436,-1.3437,-1.344,-1.3439,-1.3427,-1.3428,-1.3393,-1.3387,-1.3418,-1.3418,-1.3417,0,-1.3581,-1.3572,-1.356,-1.3553,-1.3547,-1.3536,-1.3528,-1.3523,-1.3515,-1.3502,-1.3494,-1.3479,-1.3467,-1.3444,-1.3435,-1.3421,-1.342,-1.3409,-1.3418,-1.3418,-1.3418,-1.3418,-1.3416,-1.3407,-1.3407,-1.3407,-1.3406,0,-1.3562,-1.3559,-1.3549,-1.3537,-1.3528,-1.3518,-1.3508,-1.3502,-1.3495,-1.3485,-1.3471,-1.3461,-1.3442,-1.3427,-1.3412,-1.3404,-1.3403,-1.3403,-1.34,-1.34,-1.3401,-1.3398,-1.3434,-1.3404,-1.3404,-1.3405,-1.3405,-1.3405,-1.3549,-1.354,-1.353,-1.3517,-1.3509,-1.3499,-1.3489,-1.3482,-1.347,-1.3455,-1.3452,-1.3436,-1.3423,-1.3402,-1.3394,-1.338,-1.3382,-1.3378,-1.3376,-1.3375,-1.3373,-1.3404,-1.3377,-1.3377,-1.3377,-1.3377,-1.3377,0,-1.3529,-1.3522,-1.351,-1.3496,-1.3485,-1.3486,-1.3474,-1.3465,-1.3451,-1.3439,-1.3427,-1.3409,-1.3393,-1.3382,-1.3366,-1.3356,-1.3355,-1.3352,-1.3352,-1.335,-1.3372,-1.3377,-1.3353,-1.3353,-1.3353,-1.3353,-1.3353,-1.3353,-1.3517,-1.3501,-1.3497,-1.3476,-1.3469,-1.3453,-1.3446,-1.3436,-1.3427,-1.3406,-1.3393,-1.3386,-1.3374,-1.3357,-1.3341,-1.3338,-1.3332,-1.3328,-1.3325,-1.3346,-1.3349,-1.3351,-1.3355,-1.3327,-1.3327,-1.3303,-1.3303,-1.3303]}]]